TimeEDT,TemperatureF,Dew PointF,Humidity,Sea Level PressureIn,VisibilityMPH,Wind Direction,Wind SpeedMPH,Gust SpeedMPH,PrecipitationIn,Events,Conditions,WindDirDegrees,DateUTC
12:54 AM,66.9,57.0,70,30.10,10.0,South,13.8,-,N/A,,Clear,190,2014-04-14 04:54:00
1:54 AM,66.9,57.0,70,30.09,10.0,South,15.0,-,N/A,,Clear,190,2014-04-14 05:54:00
2:54 AM,66.0,57.0,73,30.08,10.0,South,10.4,-,N/A,,Clear,190,2014-04-14 06:54:00
3:54 AM,64.9,55.9,73,30.07,10.0,South,12.7,-,N/A,,Clear,190,2014-04-14 07:54:00
4:54 AM,64.9,57.9,78,30.06,10.0,South,12.7,-,N/A,,Clear,190,2014-04-14 08:54:00
5:54 AM,64.9,57.9,78,30.06,10.0,South,13.8,-,N/A,,Clear,190,2014-04-14 09:54:00
6:54 AM,64.0,57.9,80,30.06,10.0,South,12.7,19.6,N/A,,Clear,190,2014-04-14 10:54:00
7:54 AM,66.0,57.9,75,30.08,10.0,South,16.1,21.9,N/A,,Clear,190,2014-04-14 11:54:00
8:54 AM,71.1,57.9,63,30.08,10.0,SSW,18.4,26.5,N/A,,Clear,200,2014-04-14 12:54:00
9:54 AM,73.9,55.9,53,30.07,10.0,SW,19.6,35.7,N/A,,Partly Cloudy,220,2014-04-14 13:54:00
10:54 AM,73.0,54.0,51,30.06,10.0,SSW,19.6,31.1,N/A,,Partly Cloudy,210,2014-04-14 14:54:00
11:54 AM,75.0,55.9,51,30.05,10.0,SSW,16.1,28.8,N/A,,Scattered Clouds,210,2014-04-14 15:54:00
12:54 PM,79.0,57.0,47,30.02,10.0,South,19.6,26.5,N/A,,Partly Cloudy,180,2014-04-14 16:54:00
1:54 PM,77.0,55.0,47,30.00,10.0,South,17.3,26.5,N/A,,Mostly Cloudy,170,2014-04-14 17:54:00
2:54 PM,77.0,55.9,48,29.98,10.0,South,17.3,27.6,N/A,,Scattered Clouds,190,2014-04-14 18:54:00
3:54 PM,79.0,53.1,40,29.96,10.0,SSW,21.9,31.1,N/A,,Partly Cloudy,200,2014-04-14 19:54:00
4:54 PM,77.0,55.0,47,29.94,10.0,SSE,17.3,23.0,N/A,,Partly Cloudy,160,2014-04-14 20:54:00
5:54 PM,73.0,57.0,57,29.94,10.0,South,15.0,21.9,N/A,,Clear,180,2014-04-14 21:54:00
6:54 PM,70.0,57.0,63,29.93,10.0,South,12.7,20.7,N/A,,Clear,170,2014-04-14 22:54:00
7:54 PM,68.0,57.0,68,29.93,10.0,SSE,9.2,-,N/A,,Mostly Cloudy,160,2014-04-14 23:54:00
8:54 PM,68.0,55.0,63,29.92,10.0,SSE,10.4,-,N/A,,Clear,160,2014-04-15 00:54:00
9:54 PM,66.9,57.9,73,29.92,10.0,South,15.0,-,N/A,,Clear,170,2014-04-15 01:54:00
10:54 PM,66.9,60.1,79,29.91,10.0,SSE,12.7,18.4,N/A,,Clear,160,2014-04-15 02:54:00
11:54 PM,66.0,60.1,81,29.89,10.0,South,12.7,19.6,N/A,,Scattered Clouds,180,2014-04-15 03:54:00